This demonstration page uses our WeatherBlox Daily Observations layout. Learn more.

Left ArrowRight Arrow

Hourly Observations for November 19, 2020

Temp ( °F °C ) Dew Point ( °F °C ) Humidity (%) Winds ( mph kmh ) Pressure ( in mb ) Visibility ( mi km ) Precip ( " mm )
12:15 am 00:15 Clear 53 11.8 37 3 55 55 SSW 9 15 29.74 1007 10 16 N/A
12:35 am 00:35 Clear 53 11.5 37 3 56 56 SSW 10 17 29.75 1007 10 16 N/A
12:55 am 00:55 Clear 52 11.3 37 3 57 57 SSW 8 13 29.74 1007 10 16 N/A
1:15 am 01:15 Clear 52 11.2 37 3 57 57 SSW 9 15 29.74 1007 10 16 N/A
1:35 am 01:35 Clear 52 11 37 3 58 58 SSW 10 17 29.72 1007 10 16 N/A
1:55 am 01:55 Clear 51 10.5 37 2.8 59 59 SSW 6 9 29.73 1007 10 16 N/A
2:15 am 02:15 Clear 49 9.2 37 2.5 63 63 N N/A 29.76 1008 10 16 N/A
2:35 am 02:35 Clear 49 9.3 37 2.5 63 63 SSW 5 7 29.76 1008 10 16 N/A
2:55 am 02:55 Clear 47 8.2 36 2 65 65 SW 5 7 29.78 1008 10 16 N/A
3:15 am 03:15 Clear 46 7.7 36 2.1 68 68 N N/A 29.77 1008 10 16 N/A
3:35 am 03:35 Clear 44 6.7 35 1.7 71 71 N N/A 29.80 1009 10 16 N/A
3:55 am 03:55 Clear 40 4.6 33 0.6 76 76 N N/A 29.82 1010 10 16 N/A
4:15 am 04:15 Clear 38 3.5 32 undefined 78 78 N N/A 29.84 1011 10 16 N/A
4:35 am 04:35 Clear 37 2.6 32 undefined 83 83 N N/A 29.86 1011 10 16 N/A
4:55 am 04:55 Clear 37 2.5 32 -0.1 83 83 N N/A 29.86 1011 10 16 N/A
5:15 am 05:15 Clear 38 3.6 32 0.2 79 79 WNW 3 6 29.85 1011 10 16 N/A
5:35 am 05:35 Clear 38 3.3 33 0.3 81 81 WNW 5 7 29.86 1011 10 16 N/A
5:55 am 05:55 Clear 37 2.9 32 -0.1 81 81 NW 5 7 29.86 1011 10 16 N/A
6:15 am 06:15 Clear 37 2.5 32 -0.1 83 83 WNW 7 11 29.88 1012 10 16 N/A
6:35 am 06:35 Clear 40 4.2 32 0.1 75 75 NW 6 9 29.87 1011 10 16 N/A
6:55 am 06:55 Clear 39 3.7 31 -0.6 74 74 W 6 9 29.87 1011 10 16 N/A
7:15 am 07:15 Clear 41 4.9 31 -0.4 69 69 WNW 5 7 29.88 1012 10 16 N/A
7:35 am 07:35 Sunny 40 4.4 31 -0.6 70 70 WNW 6 9 29.88 1012 10 16 N/A
7:55 am 07:55 Sunny 41 5.1 32 -0.2 69 69 N N/A 29.90 1012 10 16 N/A
8:15 am 08:15 Sunny 42 5.5 32 0.2 69 69 WNW 6 9 29.90 1013 10 16 N/A
8:35 am 08:35 Sunny 46 7.6 33 0.6 62 62 WNW 9 15 29.88 1012 10 16 N/A
8:55 am 08:55 Sunny 49 9.3 35 1.8 60 60 WNW 7 11 29.89 1012 10 16 N/A
9:15 am 09:15 Sunny 55 12.5 37 2.9 52 52 NW 8 13 29.87 1012 10 16 N/A
9:35 am 09:35 Sunny 57 13.9 37 2.8 47 47 WNW 6 9 29.86 1011 10 16 N/A
9:55 am 09:55 Sunny 60 15.4 37 2.6 42 42 WNW 7 11 29.86 1011 10 16 N/A
10:15 am 10:15 Sunny 62 16.5 36 2.1 38 38 NW 10 17 29.85 1011 10 16 N/A
10:35 am 10:35 Sunny 64 17.9 35 1.5 33 33 NW 10 17 29.83 1010 10 16 N/A
10:55 am 10:55 Sunny 67 19.2 34 1.1 30 30 NNW 12 19 29.81 1010 10 16 N/A
11:15 am 11:15 Sunny 67 19.2 33 0.8 29 29 NNW 13 20 29.82 1010 10 16 N/A
11:35 am 11:35 Sunny 68 20.1 34 1 28 28 NW 10 17 29.83 1010 10 16 N/A
11:55 am 11:55 Sunny 69 20.5 34 1 27 27 NNW 9 15 29.82 1010 10 16 N/A
12:15 pm 12:15 Sunny 70 21.2 34 1 26 26 NW 8 13 29.81 1009 10 16 N/A
12:35 pm 12:35 Sunny 72 22 33 0.5 24 24 NNW 6 9 29.79 1009 10 16 N/A
12:55 pm 12:55 Sunny 72 22.3 32 undefined 23 23 NW 9 15 29.79 1009 10 16 N/A
1:15 pm 13:15 Sunny 73 23 32 undefined 22 22 NW 13 20 29.79 1009 10 16 N/A
1:35 pm 13:35 Sunny 74 23.2 32 undefined 22 22 NNW 7 11 29.79 1009 10 16 N/A
1:55 pm 13:55 Sunny 74 23.5 32 undefined 21 21 NW 8 13 29.79 1009 10 16 N/A
2:15 pm 14:15 Sunny 74 23.2 32 undefined 22 22 NNW 8 13 29.79 1009 10 16 N/A
2:35 pm 14:35 Sunny 74 23.5 31 -0.3 21 21 NW 10 17 29.80 1009 10 16 N/A
2:55 pm 14:55 Sunny 74 23.4 31 -0.7 20 20 NNW 6 9 29.80 1009 10 16 N/A
3:15 pm 15:15 Sunny 74 23.3 28 -2.4 18 18 NW 12 19 29.80 1009 10 16 N/A
3:35 pm 15:35 Sunny 74 23.1 28 -2.3 18 18 NNW 8 13 29.81 1010 10 16 N/A
3:55 pm 15:55 Sunny 73 22.9 28 -2 19 19 NNW 8 13 29.82 1010 10 16 N/A
4:15 pm 16:15 Sunny 72 22.4 30 -1.3 21 21 NW 5 7 29.84 1010 10 16 N/A
4:35 pm 16:35 Sunny 71 21.5 29 -1.4 22 22 NW 3 6 29.86 1011 10 16 N/A
4:55 pm 16:55 Sunny 68 20.1 28 -2.1 22 22 WNW 3 6 29.88 1012 10 16 N/A
5:15 pm 17:15 Sunny 66 19 28 -2.5 23 23 WNW 3 6 29.90 1012 10 16 N/A
5:35 pm 17:35 Clear 61 15.9 28 -2.3 29 29 W 5 7 29.93 1014 10 16 N/A
5:55 pm 17:55 Clear 60 15.8 28 -2.1 29 29 N N/A 29.95 1014 10 16 N/A
6:15 pm 18:15 Clear 58 14.4 28 -2.1 32 32 WNW 5 7 29.96 1015 10 16 N/A
6:35 pm 18:35 Clear 54 12.2 28 -2.4 36 36 NW 9 15 29.99 1016 10 16 N/A
6:55 pm 18:55 Clear 54 12.3 28 -2.2 37 37 WNW 9 15 30.00 1016 10 16 N/A
7:15 pm 19:15 Clear 54 12 27 -2.6 36 36 WNW 6 9 30.03 1017 10 16 N/A
7:35 pm 19:35 Clear 53 11.7 27 -2.9 36 36 NW 8 13 30.04 1017 10 16 N/A
7:55 pm 19:55 Clear 51 10.5 26 -3.4 38 38 WNW 6 9 30.06 1018 10 16 N/A
8:15 pm 20:15 Clear 51 10.5 26 -3.5 38 38 WNW 7 11 30.07 1018 10 16 N/A
8:35 pm 20:35 Clear 47 8.4 26 -3.3 44 44 WNW 7 11 30.10 1019 10 16 N/A
8:55 pm 20:55 Clear 50 9.9 25 -3.7 38 38 WNW 8 13 30.08 1019 10 16 N/A
9:15 pm 21:15 Clear 48 9 26 -3.5 42 42 WNW 8 13 30.10 1019 10 16 N/A
9:35 pm 21:35 Clear 49 9.5 26 -3.6 40 40 WNW 9 15 30.11 1020 10 16 N/A
9:55 pm 21:55 Clear 48 9.1 26 -3.5 41 41 WNW 8 13 30.12 1020 10 16 N/A
10:15 pm 22:15 Clear 48 8.9 26 -3.6 41 41 NW 8 13 30.13 1020 10 16 N/A
10:35 pm 22:35 Clear 48 9.1 26 -3.4 42 42 NNW 12 19 30.15 1021 10 16 N/A
10:55 pm 22:55 Clear 48 8.8 27 -2.7 45 45 NNW 12 19 30.16 1021 10 16 N/A
11:15 pm 23:15 Clear 47 8.1 28 -2.3 48 48 NNW 8 13 30.19 1022 10 16 N/A
11:35 pm 23:35 Clear 46 7.5 29 -1.6 53 53 N 8 13 30.21 1023 10 16 N/A
11:55 pm 23:55 Clear 46 7.6 32 -0.1 59 59 N 9 15 30.21 1023 10 16 N/A

Powered by AerisWeather